Vorticity
9 32 44 50 6 12 -13 27 15 38 30 3 1 28 27 16 35 4 4 7 1 6
7 51 -4 4 52 21 57 20 11 7 41 19 -42 25 33 10 6 3 -1 3 9 3
1 34 2 6 22 2 5 23 9 26 7 30 -9 19 15 28 5 7 13 10 9 3
-2 -7 13 50 10 1 25 -8 46 9 -15 31 4 24 7 6 11 -4 3 -3 -3 0
19 -20 25 13 35 -3 -3 -1 66 -35 59 24 37 19 9 16 17 6 15 4 2 8
7 -2 8 12 13 25 10 3 51 34 14 27 8 18 15 22 15 28 11 16 -3 3
-1 17 13 4 9 14 6 4 -4 31 41 14 8 14 10 14 7 1 15 -3 4 -4
18 0 14 9 14 8 5 9 14 2 20 65 19 13 13 0 12 29 20 23 10 18
18 3 3 15 21 2 10 6 12 9 13 6 17 60 15 8 3 -17 64 67 57 26
15 34 21 13 11 27 11 16 13 17 2 8 14 20 18 27 31 26 27 33 31 38
6 25 19 7 13 6 9 8 3 10 9 18 1 5 5 7 6 9 11 7 10 12
-1 3 -12 20 14 -3 13 13 8 15 12 5 10 8 3 -4 -0 4 0 -1 4 1
5 13 15 -3 4 13 0 17 3 6 10 11 2 -7 3 -1 2 2 2 5 7 7
12 -1 14 22 11 6 18 1 2 -11 2 -5 -7 0 8 13 14 10 8 7 6 7
Height
5582 5579 5575 5574 5575 5580 5584 5591 5598 5609 5622 5631 5640 5653 5655 5666 5678 5693 5703 5713 5721 5728
5578 5575 5576 5573 5571 5571 5576 5584 5589 5602 5613 5623 5633 5645 5650 5660 5670 5680 5691 5701 5711 5718
5577 5573 5574 5572 5574 5576 5581 5581 5588 5599 5609 5618 5631 5637 5644 5653 5661 5670 5680 5691 5701 5707
5576 5575 5575 5570 5571 5575 5575 5580 5588 5598 5608 5616 5622 5632 5638 5647 5654 5664 5673 5681 5689 5697
5574 5576 5575 5574 5571 5573 5574 5585 5592 5597 5598 5606 5617 5626 5631 5639 5647 5656 5665 5672 5679 5687
5572 5573 5573 5573 5572 5574 5576 5581 5585 5583 5590 5600 5612 5619 5625 5632 5639 5646 5653 5659 5667 5673
5571 5570 5570 5571 5572 5574 5576 5577 5575 5581 5588 5595 5604 5611 5619 5626 5631 5637 5642 5649 5655 5660
5568 5567 5567 5568 5570 5571 5573 5573 5576 5582 5586 5590 5597 5604 5611 5617 5625 5630 5634 5639 5643 5647
5567 5568 5566 5567 5568 5570 5571 5574 5578 5580 5585 5587 5591 5596 5602 5608 5615 5621 5627 5634 5638 5642
5566 5567 5568 5568 5570 5570 5572 5576 5578 5580 5583 5585 5589 5593 5597 5603 5608 5612 5616 5621 5625 5630
5565 5567 5568 5568 5569 5572 5574 5576 5578 5581 5583 5586 5589 5591 5596 5601 5606 5609 5613 5618 5622 5624
5563 5564 5565 5567 5568 5571 5573 5576 5577 5578 5581 5585 5587 5590 5595 5599 5603 5607 5609 5613 5615 5618
5559 5560 5562 5563 5565 5566 5570 5572 5575 5577 5579 5582 5587 5589 5592 5594 5597 5600 5603 5605 5607 5610
5554 5555 5557 5559 5561 5563 5565 5567 5571 5574 5578 5579 5582 5584 5588 5590 5593 5595 5596 5599 5601 5602